• în România
  • Lista ţărilor
  • Pe 7 zile
  • Temperatura apei
  • Hartă satelitară
  • Meteo pe hartă
  • Widget-uri
  • user-avatar
    Intrare

    Meteo pe oră la Szekesfehervar

    Astăzi, 22 Mai, Marţi

    Timp Temperatura Precipitaţii Vânt Presiune Umiditate
    00:00 +16°C° 0 mm 1 m/s 750 mmHg 81%
    01:00 +15°C° 0 mm 1 m/s 750 mmHg 84%
    02:00 +15°C° 0 mm 1 m/s 750 mmHg 86%
    03:00 +15°C° 0 mm 2 m/s 750 mmHg 89%
    04:00 +14°C° 0 mm 2 m/s 750 mmHg 91%
    05:00 +16°C° 0 mm 2 m/s 750 mmHg 88%
    06:00 +17°C° 0 mm 3 m/s 750 mmHg 85%
    07:00 +18°C° 0 mm 3 m/s 750 mmHg 81%
    08:00 +20°C° 0,1 mm 3 m/s 750 mmHg 77%
    09:00 +21°C° 0,1 mm 4 m/s 750 mmHg 72%
    10:00 +23°C° 0,1 mm 4 m/s 750 mmHg 68%
    11:00 +23°C° 0,6 mm 4 m/s 750 mmHg 67%
    12:00 +25°C° 0,6 mm 4 m/s 750 mmHg 66%
    13:00 +25°C° 0,6 mm 4 m/s 750 mmHg 65%
    14:00 +25°C° 1,3 mm 3 m/s 750 mmHg 67%
    15:00 +24°C° 1,3 mm 3 m/s 749 mmHg 70%
    16:00 +24°C° 1,3 mm 3 m/s 749 mmHg 72%
    17:00 +22°C° 1,2 mm 3 m/s 749 mmHg 76%
    18:00 +21°C° 1,2 mm 3 m/s 749 mmHg 79%
    19:00 +20°C° 1,2 mm 3 m/s 749 mmHg 83%
    20:00 +19°C° 0,4 mm 2 m/s 749 mmHg 85%
    21:00 +19°C° 0,4 mm 2 m/s 750 mmHg 88%
    22:00 +18°C° 0,4 mm 2 m/s 750 mmHg 90%
    23:00 +18°C° 0,1 mm 2 m/s 750 mmHg 91%

    Mâine, 23 Mai, Miercuri

    Timp Temperatura Precipitaţii Vânt Presiune Umiditate
    00:00 +17°C° 0,1 mm 2 m/s 750 mmHg 91%
    01:00 +17°C° 0,1 mm 2 m/s 750 mmHg 92%
    02:00 +17°C° 0,1 mm 2 m/s 750 mmHg 92%
    03:00 +17°C° 0,1 mm 2 m/s 750 mmHg 93%
    04:00 +16°C° 0,1 mm 1 m/s 751 mmHg 93%
    05:00 +17°C° 0 mm 2 m/s 751 mmHg 90%
    06:00 +19°C° 0 mm 2 m/s 751 mmHg 87%
    07:00 +20°C° 0 mm 2 m/s 752 mmHg 83%
    08:00 +21°C° 0,1 mm 2 m/s 752 mmHg 77%
    09:00 +24°C° 0,1 mm 2 m/s 752 mmHg 71%
    10:00 +25°C° 0,1 mm 3 m/s 752 mmHg 65%
    11:00 +26°C° 0,1 mm 3 m/s 752 mmHg 62%
    12:00 +27°C° 0,1 mm 3 m/s 752 mmHg 58%
    13:00 +27°C° 0,1 mm 3 m/s 751 mmHg 54%
    14:00 +27°C° 0,1 mm 2 m/s 751 mmHg 54%
    15:00 +27°C° 0,1 mm 2 m/s 751 mmHg 55%
    16:00 +28°C° 0,1 mm 2 m/s 750 mmHg 55%
    17:00 +26°C° 0,2 mm 2 m/s 751 mmHg 61%
    18:00 +25°C° 0,2 mm 2 m/s 751 mmHg 68%
    19:00 +23°C° 0,2 mm 2 m/s 751 mmHg 74%
    20:00 +22°C° 0,9 mm 1 m/s 751 mmHg 77%
    21:00 +21°C° 0,9 mm 1 m/s 751 mmHg 81%
    22:00 +20°C° 0,9 mm 1 m/s 751 mmHg 85%
    23:00 +20°C° 0,3 mm 1 m/s 751 mmHg 86%

    Poimâine, 24 Mai, Joi

    Timp Temperatura Precipitaţii Vânt Presiune Umiditate
    00:00 +20°C° 0,3 mm 1 m/s 751 mmHg 88%
    01:00 +19°C° 0,3 mm 1 m/s 751 mmHg 89%
    02:00 +19°C° 0 mm 1 m/s 751 mmHg 90%
    03:00 +19°C° 0 mm 1 m/s 751 mmHg 90%
    04:00 +18°C° 0 mm 1 m/s 751 mmHg 91%
    05:00 +20°C° 0 mm 1 m/s 752 mmHg 87%
    06:00 +21°C° 0 mm 1 m/s 752 mmHg 83%
    07:00 +22°C° 0 mm 1 m/s 752 mmHg 79%
    08:00 +24°C° 0,5 mm 1 m/s 752 mmHg 73%
    09:00 +25°C° 0,5 mm 1 m/s 752 mmHg 66%
    10:00 +27°C° 0,5 mm 1 m/s 752 mmHg 60%
    11:00 +27°C° 0,2 mm 1 m/s 752 mmHg 56%
    12:00 +28°C° 0,2 mm 1 m/s 752 mmHg 53%
    13:00 +29°C° 0,2 mm 1 m/s 751 mmHg 49%
    14:00 +29°C° 0 mm 1 m/s 751 mmHg 50%
    15:00 +29°C° 0 mm 2 m/s 751 mmHg 50%
    16:00 +28°C° 0 mm 2 m/s 751 mmHg 51%
    17:00 +27°C° 0,3 mm 2 m/s 751 mmHg 57%
    18:00 +25°C° 0,3 mm 2 m/s 751 mmHg 64%
    19:00 +24°C° 0,3 mm 2 m/s 751 mmHg 70%
    20:00 +23°C° 0,4 mm 1 m/s 751 mmHg 74%
    21:00 +22°C° 0,4 mm 1 m/s 751 mmHg 77%
    22:00 +21°C° 0,4 mm 1 m/s 751 mmHg 81%
    23:00 +20°C° 0,1 mm 2 m/s 751 mmHg 83%

    25 Mai, Vineri

    Timp Temperatura Precipitaţii Vânt Presiune Umiditate
    00:00 +19°C° 0,1 mm 2 m/s 751 mmHg 84%
    01:00 +19°C° 0,1 mm 2 m/s 751 mmHg 86%
    02:00 +18°C° 0,1 mm 2 m/s 751 mmHg 88%
    03:00 +18°C° 0,1 mm 2 m/s 751 mmHg 89%
    04:00 +17°C° 0,1 mm 2 m/s 751 mmHg 90%
    05:00 +18°C° 0 mm 2 m/s 752 mmHg 87%
    06:00 +19°C° 0 mm 2 m/s 752 mmHg 83%
    07:00 +20°C° 0 mm 2 m/s 752 mmHg 79%
    08:00 +23°C° 0 mm 2 m/s 752 mmHg 74%
    09:00 +24°C° 0 mm 2 m/s 752 mmHg 69%
    10:00 +26°C° 0 mm 3 m/s 752 mmHg 63%
    11:00 +27°C° 0,2 mm 3 m/s 752 mmHg 60%
    12:00 +27°C° 0,2 mm 3 m/s 752 mmHg 57%
    13:00 +28°C° 0,2 mm 3 m/s 752 mmHg 54%
    14:00 +28°C° 0,2 mm 3 m/s 752 mmHg 55%
    15:00 +28°C° 0,2 mm 2 m/s 751 mmHg 55%
    16:00 +28°C° 0,2 mm 2 m/s 751 mmHg 56%
    17:00 +27°C° 0,4 mm 2 m/s 751 mmHg 62%
    18:00 +25°C° 0,4 mm 2 m/s 751 mmHg 69%
    19:00 +24°C° 0,4 mm 2 m/s 751 mmHg 75%
    20:00 +23°C° 0,1 mm 2 m/s 751 mmHg 78%
    21:00 +21°C° 0,1 mm 2 m/s 752 mmHg 80%
    22:00 +20°C° 0,1 mm 2 m/s 752 mmHg 83%
    23:00 +20°C° 0,2 mm 2 m/s 752 mmHg 85%

    26 Mai, Sâmbătă

    Timp Temperatura Precipitaţii Vânt Presiune Umiditate
    00:00 +19°C° 0,2 mm 2 m/s 752 mmHg 86%
    01:00 +20°C° 0,2 mm 1 m/s 752 mmHg 87%
    02:00 +19°C° 0 mm 1 m/s 752 mmHg 88%
    03:00 +18°C° 0 mm 2 m/s 752 mmHg 88%
    04:00 +17°C° 0 mm 2 m/s 752 mmHg 89%
    05:00 +19°C° 0 mm 2 m/s 752 mmHg 85%
    06:00 +20°C° 0 mm 2 m/s 753 mmHg 81%
    07:00 +21°C° 0 mm 2 m/s 753 mmHg 76%
    08:00 +24°C° 0 mm 2 m/s 753 mmHg 71%
    09:00 +25°C° 0 mm 2 m/s 753 mmHg 65%
    10:00 +27°C° 0 mm 2 m/s 753 mmHg 60%
    11:00 +27°C° 0,1 mm 2 m/s 753 mmHg 57%
    12:00 +28°C° 0,1 mm 2 m/s 753 mmHg 54%
    13:00 +29°C° 0,1 mm 2 m/s 753 mmHg 51%
    14:00 +29°C° 0 mm 2 m/s 753 mmHg 50%
    15:00 +29°C° 0 mm 2 m/s 753 mmHg 50%
    16:00 +29°C° 0 mm 2 m/s 753 mmHg 49%
    17:00 +28°C° 0 mm 2 m/s 753 mmHg 55%
    18:00 +26°C° 0 mm 2 m/s 753 mmHg 61%
    19:00 +25°C° 0 mm 1 m/s 753 mmHg 67%
    20:00 +24°C° 0 mm 1 m/s 753 mmHg 70%
    21:00 +23°C° 0 mm 1 m/s 753 mmHg 72%
    22:00 +20°C° 0 mm 0 m/s 754 mmHg 75%
    23:00 +21°C° 0 mm 1 m/s 754 mmHg 77%

    27 Mai, Duminică

    Timp Temperatura Precipitaţii Vânt Presiune Umiditate
    00:00 +21°C° 0 mm 1 m/s 754 mmHg 78%
    01:00 +21°C° 0 mm 1 m/s 754 mmHg 79%
    02:00 +20°C° 0 mm 1 m/s 754 mmHg 81%
    03:00 +20°C° 0 mm 1 m/s 754 mmHg 82%
    04:00 +19°C° 0 mm 1 m/s 754 mmHg 84%
    05:00 +21°C° 0 mm 1 m/s 754 mmHg 80%
    06:00 +22°C° 0 mm 1 m/s 754 mmHg 76%
    07:00 +24°C° 0 mm 1 m/s 754 mmHg 72%
    08:00 +25°C° 0 mm 1 m/s 754 mmHg 67%
    09:00 +27°C° 0 mm 1 m/s 754 mmHg 62%
    10:00 +28°C° 0 mm 1 m/s 754 mmHg 57%
    11:00 +29°C° 0,1 mm 1 m/s 754 mmHg 54%
    12:00 +29°C° 0,1 mm 1 m/s 754 mmHg 51%
    13:00 +30°C° 0,1 mm 2 m/s 753 mmHg 48%
    14:00 +30°C° 0 mm 2 m/s 753 mmHg 48%
    15:00 +30°C° 0 mm 2 m/s 753 mmHg 48%
    16:00 +30°C° 0 mm 2 m/s 752 mmHg 48%
    17:00 +28°C° 0 mm 2 m/s 752 mmHg 53%
    18:00 +27°C° 0 mm 1 m/s 752 mmHg 58%
    19:00 +26°C° 0 mm 1 m/s 752 mmHg 64%
    20:00 +25°C° 0 mm 1 m/s 753 mmHg 66%
    21:00 +24°C° 0 mm 1 m/s 753 mmHg 68%
    22:00 +23°C° 0 mm 1 m/s 753 mmHg 70%
    23:00 +22°C° 0,1 mm 1 m/s 753 mmHg 73%
    Arată mai mult